パンスターズ彗星

C/2015 K4 ( PanSTARRS )

English version
Home page
Updated on June 11, 2016

---------------------------------------------------------------------

・ プロフィール

発見日 2015年5月24日
発見光度 19.0等
発見者 Pan-STARRS 1 telescope (Haleakala)

・ 写真集

・ 軌道要素

Epoch 2015 May 18.0 TT = JDT 2457160.5
T 2015 May 1.76959 TT                                   MPCW
q   2.0077034            (2000.0)            P               Q
z  -0.0001147      Peri.  357.54060     -0.33588668     +0.14551250
 +/-0.0001214      Node   250.77169     -0.84648401     -0.47994045
e   1.0002303      Incl.   80.25679     -0.41309195     +0.86514928
From 123 observations 2015 May 24-July 14, mean residual 0".5.

・ 光度変化

        m1 = 14.5 + 5 logΔ + 10.0 log r

---------------------------------------------------------------------

軌道要素はM.P.E.C. 2015-S97に掲載されたものです。
光度グラフはComet for Windowsで作成したものです。

---------------------------------------------------------------------

Copyright(C) Seiichi Yoshida (comet@aerith.net). All rights reserved.